Location: Colonie
(42.7179°N, 73.8335°W)
Time: 04:44:22
(UTC+00:00)

GPS 2-04 Rocket1 - Pass Details

Date: 29 October 2020
Orbit: 417 x 546 km, 35.6° (Epoch: 29 November)

Event Time Altitude Azimuth Distance (km) Brightness Sun altitude
Rises 23:33:09 0° 240° (WSW) 2,622 7.4 -19.2°
Reaches altitude 10° 23:35:35 10° 228° (SW) 1,757 6.1 -19.7°
Maximum altitude 23:39:01 27° 170° (S) 1,051 4.1 -20.3°
Enters shadow 23:39:21 26° 162° (SSE) 1,061 4.1 -20.4°
